Location: Bussy-Saint-Georges
(48.8410°N, 2.7017°E)
Time: 15:25:55
(UTC+00:00)

Cosmos 2366 rocket - Pass Details

Date: 18 October 2021
Orbit: 956 x 996 km, 82.9° (Epoch: 28 November)

Event Time Altitude Azimuth Distance (km) Brightness Sun altitude
Rises 17:27:13 0° 189° (S) 3,629 7.2 -6.3°
Reaches altitude 10° 17:29:41 10° 189° (S) 2,691 6.6 -6.7°
Maximum altitude 17:35:52 85° 278° (W) 979 4.1 -7.7°
Drops below altitude 10° 17:42:09 10° 8° (N) 2,736 6.2 -8.7°
Sets 17:44:41 0° 10° (N) 3,694 6.9 -9.1°
